Location: Asheville, NC
(35.6000°N, 82.5500°W)
Time: 19:04:43

Vanguard 2 Rocket - Pass Details

Date: 17 March 2018
Orbit: 554 x 3327 km, 32.9° (Epoch: 20 March)

Event Time Altitude Azimuth Distance (km) Brightness Sun altitude
Rises 23:33:42 0° 264° (W) 3,509 10.3 -44.9°
Enters shadow 23:35:35 - 253° (WSW) 3,089 9.9 -45.2°
Reaches altitude 10° 23:36:45 10° 244° (WSW) 2,895 - -45.3°
Maximum altitude 23:41:29 19° 203° (SSW) 2,826 - -46.0°
Drops below altitude 10° 23:47:58 10° 164° (SSE) 4,165 - -46.9°
Sets 23:53:46 0° 150° (SSE) 5,764 - -47.7°
